Powrót do katalogu

ARIANE 1 DEB

AktywnySSO
NORAD 17219·DEBRIS·🇫🇷 France

Wystrzelony Feb 22, 1986 z Guiana Space Centre

Loading…

Następne Przeloty (najbliższe 24 godziny)

TLE

ŚwieżeSource: Space-Track

Epoka: Sep 13, 2026, 07:36 UTC

1 17219U 86019BR  26256.31692549  .00002065  00000-0  42009-3 0  9995
2 17219  98.4180 173.8850 0029632 177.6981 301.2132 14.61916243 87706

Śledź ARIANE 1 DEB w czasie rzeczywistym z AllMySat

Download on the App Store